Terug naar catalogus

DEMO8

TENZING

ActiefWetenschapPO
NORAD 48951·PAYLOAD·🇺🇸 United States

Gelanceerd Jun 30, 2021 vanaf Cape Canaveral Space Force Station

Loading…

Volgende Passages (komende 24 uur)

TLE

VersSource: Space-Track

Epoch: Sep 14, 2026, 12:45 UTC

1 48951U 21059CA  26257.53143510  .00018448  00000-0  24518-3 0  9996
2 48951  97.6964  97.9681 0006775  28.7295 331.4332 15.58238115291200

Volg DEMO8 in realtime met AllMySat

Download on the App Store